Погода в Пачелме

Погода в Пачелме : погода сейчас, прогноз погоды и архив. Всё, что Вы хотите узнать о погоде в Пачелме!

Хотите узнать прогноз погоды в Пачелме? Тогда Вам сюда: Погода в Пачелме

Поиск расширенной информации на нашем сайте:

Другие новости

Новости СМИ2

Главная страница сайта

Новости сайта

03.07.2017

Напоминаем, что на нашем специализированном сайте Метеоцентр.Азия вы можете получить высокодетализированные автоматические прогнозы погоды по пунктам России, СНГ и мира в авиационном формате (включающие направление и скорость ветра, видимость, явления погоды, количество и форму облачности, нижнюю и верхнюю границу облачности).


Погода в Пачелме - сегодня

Время (UTC), дата Ветер
(°,м/с) 
Видим.   Явления Облачность Т
(°С)
Тd
(°С)
f(%) Тe
(°С)
Pmin
(гПа)
dP
(гПа)
Po
(мм)
O2
(г/м3)
Тmin Tmax R s Состояние
почвы
18 11.10.18 010 (С) 10 км    ясно 
+7 +0.9 65 +6  1027.8  1.7  747  293           
21 11.10.18 010 (С) 10 км    ясно 
+4.9 +0.9 75 +4  1029.8  1.7  748  296           
00 12.10.18 360 (С) 10 км    ясно 
+3.3 +0.9 84 +2  1031.1  1.1  749  298           
06 12.10.18 280 (З) 10 км    ясно 
+3.7 +1.7 87 +5  1034  1.7  751  298  -0.8         
09 12.10.18 320 (СЗ) 10 км    ясно 
+9.4 +0.8 55 +9  1033.6  0.2  751  292           
12 12.10.18 310 (СЗ) 10 км    1/0 средняя 
[Ac lent]
+11 +0.1 47 +11  1032.4  -0.9  751  291           
18 12.10.18 270 (З) 10 км    5/0 средняя 
[Ac trans]
+7 +1.7 69 +6  1029.5  -1.8  748  294           
21 12.10.18 270 (З) 10 км    ясно 
+6.1 +1.8 74 +5  1028.6  -0.9  747  294           
00 13.10.18 270 (З) 10 км    ясно 
+4.6 +2.2 84 +4  1028.1  -0.7  747  296           
03 13.10.18 280 (З) 10 км    1/0 средняя 
[Ac trans]
+3.5 +2.5 93 +3  1027.6  -0.6  746  297  +3.5        сухая 
09 13.10.18 310 (СЗ) 10 км    10/0 средняя 
[Ac As]
+9.7 +6.8 82 +10  1027.3  0.1  747  289           
15 13.10.18 310 (СЗ) 10 км    10/10 300 м 
[Frnb]
+10.2 +7.9 86 +10  1026  -0.7  746  288    +10.7       
18 13.10.18 300 (СЗ) 10 км    10/10 330 м 
[St]
+9.5 +8.2 92 +10  1025.5  -0.5  745  289           
21 13.10.18 280 (З) 10 км    10/10 300 м 
[St]
+8.6 +7.5 93 +10  1025.1  -0.5  745  290           
03 14.10.18 280 (З) 0500 м  туман  ?/?  
+6.8 +6.3 97 +7  1024.6  0.1  745  292  +6.7        сухая 
06 14.10.18 310 (СЗ) 0500 м  туман  ?/?  
+7.2 +6.7 97 +8  1024.9  0.3  745  291  +6.3         
15 14.10.18 310 (СЗ) 10 км    10/10 500 м 
[Sc]
+9.3 +8 92 +9  1024.4  0.2  745  289    +11.5       
18 14.10.18 330 (СЗ) 10 км    10/0 средняя 
[Ac As]
+9 +7.9 93 +10  1024.3  0.1  745  289           
21 14.10.18 280 (З) 10 км    10/10 210 м 
[St]
+8.6 +7.8 95 +9  1023.7  -0.6  744  289           
00 15.10.18 310 (СЗ) 0200 м  туман  ?/?  
+8.9 +8.4 97 +8  1023.4  -0.2  744  289           
03 15.10.18 310 (СЗ) 0500 м  туман  ?/?  
+9.3 +8.9 97 +9  1023.6  0.2  744  288  +8.5        сухая 
09 15.10.18 340 (С) 10 км    3/0 средняя 
[Ac und]
+17.2 +11.5 69 +21  1023.6  0.3  745  280           
12 15.10.18 330 (СЗ) 10 км    ясно 
+19.3 +11.2 59 +23  1023.4  745  278           
15 15.10.18 310 (СЗ) 10 км    ясно 
+15.9 +9.9 68 +18  1024.8  745  282    +19.5       
18 15.10.18 290 (З) 10 км    ясно 
+12.1 +9 81 +12  1025.7  0.5  746  286           
Время (UTC), дата Ветер
(°,м/с) 
Видим.   Явления Облачность Т
(°С)
Тd
(°С)
f(%) Тe
(°С)
Pmin
(гПа)
dP
(гПа)
Po
(мм)
O2
(г/м3)
Тmin Tmax R s Состояние
почвы

Для получения пояснительной информации подведите курсор к названию столбца.

ПОГОДА в Пачелме - архив

Всё, что Вы хотите узнать о погоде в Пачелме - удобно и подробно!

Выберите нужную дату (начиная с 1 января 2015* года) и нажмите кнопку "Найти".
Будут отображены архивные сводки погоды по пункту Пачелма, начиная с указанной даты.


Отображать данные в формате CSV (для использования в таблицах Excel)


Внимание! Наш архив погоды предназначен исключительно для личного некоммерческого использования в познавательных целях. Если Вам необходимы официальные справки о состоянии погоды (для производственных, юридических, коммерческих и т.п. целей), обращайтесь в органы Росгидромета.

*Примечание: данная дата относится к архиву по метеостанциям СССР (Россия, СНГ, Балтия).
Архив по метеостанциям Зарубежной Европы и Азии (кроме Китая) хранится 10 дней, по другим регионам земного шара (Китай, Африка, Америка, Австралия, Океания) - 1 день.

Пачелма - район местоположения метеостанции


Название, широта, долгота, высота метеостанции:
Пачелма 53.3°ш. 43.3°д. 261 м над ур. моря [Российская Федерация]

Дополнительная информация

В oтличие oт бoльшинства пoгoдных сайтoв мы публикуем пoдрoбную метеoинфoрмацию в детальнoм прoфессиoнальнoм фoрмате.

Характеристики температуры и влажнoсти вoздуха измеряются на высoте 2 м в тени вдали oт зданий и деревьев.
Скoрoсть ветра измеряется на высoте 10 м (на урoвне рoста челoвека скoрoсть ветра ниже в 1.5-2 раза). Если метеoстанция нахoдится в гoрoде или в лесу, тo скoрoсть ветра занижена на 2-4 м/с пo сравнению с oткрытым местoм. Скoрoсть ветра над акватoриями крупных рек и oзёр, а также на вершинах хoлмoв на 2-5 м/с выше, чем в oбычных услoвиях.
Атмoсфернoе давление в разных тoчках местнoсти мoжет значительнo oтличаться oт давления на метеoстанции, в зависимoсти oт услoвий рельефа (при пoдъёме на 10 м давление пoнижается примернo на 1 мм рт.ст.).